Location: ČR
(50.0000°N, 15.0000°E)
Time: 10:47:00
(UTC+02:00)

A-11 Canister half - Pass Details

Date: 19 March 2026
Orbit: 1514 x 1685 km, 47.2° (Epoch: 16 April)

Event Time Altitude Azimuth Distance (km) Brightness Sun altitude
Rises 10:25:04 0° 169° (S) 4,779 12.5 34.9°
Reaches altitude 10° 10:30:56 10° 142° (SE) 3,842 12.5 35.4°
Maximum altitude 10:34:11 12° 122° (ESE) 3,701 12.1 35.7°
Drops below altitude 10° 10:37:27 10° 102° (ESE) 3,892 11.7 36.0°
Sets 10:43:27 0° 75° (ENE) 4,916 11.8 36.4°
